TimePST,TemperatureF,Dew PointF,Humidity,Sea Level PressureIn,VisibilityMPH,Wind Direction,Wind SpeedMPH,Gust SpeedMPH,PrecipitationIn,Events,Conditions,WindDirDegrees,DateUTC
12:54 AM,53.1,39.9,61,30.04,10.0,Calm,Calm,-,N/A,,Clear,0,2013-03-05 08:54:00
1:54 AM,50.0,39.9,68,30.02,10.0,NNE,4.6,-,N/A,,Clear,30,2013-03-05 09:54:00
2:54 AM,51.1,39.9,66,30.01,10.0,Calm,Calm,-,N/A,,Clear,0,2013-03-05 10:54:00
3:54 AM,46.9,39.0,74,30.01,10.0,Calm,Calm,-,N/A,,Clear,0,2013-03-05 11:54:00
4:54 AM,48.2,39.2,71,30.01,10.0,Calm,Calm,-,N/A,,Clear,0,2013-03-05 12:54:00
5:54 AM,48.0,39.0,71,30.01,10.0,Calm,Calm,-,N/A,,Clear,0,2013-03-05 13:54:00
6:54 AM,48.9,39.9,71,30.03,10.0,Calm,Calm,-,N/A,,Clear,0,2013-03-05 14:54:00
7:54 AM,57.9,41.0,53,30.04,10.0,Calm,Calm,-,N/A,,Clear,0,2013-03-05 15:54:00
8:54 AM,63.0,41.0,45,30.05,10.0,North,8.1,-,N/A,,Clear,360,2013-03-05 16:54:00
9:54 AM,66.0,42.1,42,30.04,10.0,Calm,Calm,-,N/A,,Clear,0,2013-03-05 17:54:00
10:54 AM,68.0,41.0,37,30.01,10.0,Variable,3.5,-,N/A,,Clear,0,2013-03-05 18:54:00
11:54 AM,70.0,39.9,33,29.97,10.0,Calm,Calm,-,N/A,,Clear,0,2013-03-05 19:54:00
12:54 PM,73.0,37.9,28,29.94,10.0,West,4.6,-,N/A,,Clear,260,2013-03-05 20:54:00
1:54 PM,75.0,36.0,24,29.90,10.0,WNW,11.5,-,N/A,,Clear,300,2013-03-05 21:54:00
2:54 PM,75.9,37.9,25,29.88,10.0,WNW,11.5,-,N/A,,Clear,290,2013-03-05 22:54:00
3:54 PM,73.9,39.9,29,29.88,10.0,WNW,10.4,20.7,N/A,,Clear,300,2013-03-05 23:54:00
4:54 PM,72.0,39.9,31,29.87,10.0,NNW,17.3,-,N/A,,Clear,340,2013-03-06 00:54:00
5:54 PM,64.9,37.9,37,29.89,10.0,NNW,17.3,-,N/A,,Clear,330,2013-03-06 01:54:00
6:54 PM,61.0,37.9,42,29.92,10.0,North,16.1,-,N/A,,Clear,350,2013-03-06 02:54:00
7:54 PM,57.9,37.9,47,29.94,10.0,NNW,11.5,-,N/A,,Scattered Clouds,340,2013-03-06 03:54:00
8:54 PM,54.0,39.9,59,29.96,10.0,North,18.4,23.0,N/A,,Partly Cloudy,360,2013-03-06 04:54:00
9:54 PM,52.0,37.9,59,29.98,10.0,North,16.1,-,N/A,,Clear,10,2013-03-06 05:54:00
10:54 PM,50.0,37.9,63,29.99,10.0,NNE,16.1,23.0,N/A,,Clear,20,2013-03-06 06:54:00
11:54 PM,50.0,37.9,63,30.00,10.0,North,9.2,-,N/A,,Clear,360,2013-03-06 07:54:00